Private Wetterstation Wechselburg
Wetterdaten: Sonntag, 17.07.2011
Datum Zeit Temp. +2m Bodentemp. Temp.+5cm Temp. Wind Windchill X Diff Temp. Feuchte +2m Feuchte +5cm Sonnenschein Luftdruck Regen Wind Richtung Richtung Sonnenschein UV Taupunkt Windchill Windben
17.07.2011 00:00 18,1 C 22,8 C 15,6 C 16,5 C 13,4 C 0,0 C 70 % 81 % 0 % 1005,5 hPa 0,0 l/m 0,0 km/h (0 Bft) W-SW 247 0 min 0,0 UV-I 12,5 C 13,4 C 0,0 km/h (0 Bft)
17.07.2011 00:09 18,0 C 22,9 C 15,5 C 16,4 C 13,2 C 0,0 C 71 % 81 % 0 % 1004,6 hPa 0,0 l/m 0,0 km/h (0 Bft) N 0 0 min 0,0 UV-I 12,7 C 13,2 C 0,0 km/h (0 Bft)
17.07.2011 00:15 17,8 C 22,9 C 15,3 C 16,3 C 13,3 C 0,0 C 70 % 81 % 0 % 1004,6 hPa 0,0 l/m 0,0 km/h (0 Bft) N-NO 22 0 min 0,0 UV-I 12,3 C 13,3 C 0,0 km/h (0 Bft)
17.07.2011 00:20 17,6 C 22,8 C 15,2 C 16,2 C 13,3 C 0,0 C 71 % 81 % 0 % 1004,6 hPa 0,0 l/m 0,0 km/h (0 Bft) N-NO 22 0 min 0,0 UV-I 12,3 C 13,3 C 0,0 km/h (0 Bft)
17.07.2011 00:25 17,6 C 22,8 C 15,2 C 16,2 C 13,4 C 0,0 C 70 % 81 % 0 % 1004,6 hPa 0,0 l/m 0,0 km/h (0 Bft) W-SW 247 0 min 0,0 UV-I 12,1 C 13,4 C 0,0 km/h (0 Bft)
17.07.2011 00:30 17,6 C 22,8 C 15,2 C 16,2 C 13,3 C 0,0 C 70 % 80 % 0 % 1005,1 hPa 0,0 l/m 0,0 km/h (0 Bft) N-NW 337 0 min 0,0 UV-I 12,1 C 13,3 C 0,0 km/h (0 Bft)
17.07.2011 00:35 17,5 C 22,8 C 15,1 C 16,1 C 13,2 C 0,0 C 70 % 80 % 0 % 1005,1 hPa 0,0 l/m 0,0 km/h (0 Bft) N-NW 337 0 min 0,0 UV-I 12,0 C 13,2 C 0,0 km/h (0 Bft)
17.07.2011 00:40 17,5 C 22,7 C 15,1 C 16,1 C 13,2 C 0,0 C 70 % 81 % 0 % 1005,1 hPa 0,0 l/m 0,0 km/h (0 Bft) W-SW 247 0 min 0,0 UV-I 12,0 C 13,2 C 0,0 km/h (0 Bft)
17.07.2011 00:45 17,3 C 22,8 C 15,1 C 15,9 C 13,1 C 0,0 C 70 % 80 % 0 % 1005,1 hPa 0,0 l/m 0,0 km/h (0 Bft) W-SW 247 0 min 0,0 UV-I 11,8 C 13,1 C 0,0 km/h (0 Bft)
17.07.2011 00:50 17,2 C 22,7 C 14,8 C 15,8 C 13,1 C 0,0 C 69 % 80 % 0 % 1004,8 hPa 0,0 l/m 0,0 km/h (0 Bft) W-SW 247 0 min 0,0 UV-I 11,5 C 13,1 C 0,0 km/h (0 Bft)
17.07.2011 00:55 17,1 C 22,7 C 14,8 C 15,8 C 13,3 C 0,0 C 70 % 80 % 0 % 1004,8 hPa 0,0 l/m 0,0 km/h (0 Bft) W-SW 247 0 min 0,0 UV-I 11,6 C 13,3 C 0,0 km/h (0 Bft)
17.07.2011 01:00 17,1 C 22,7 C 14,8 C 15,8 C 13,2 C 0,0 C 69 % 79 % 0 % 1004,8 hPa 0,0 l/m 0,0 km/h (0 Bft) W-SW 247 0 min 0,0 UV-I 11,4 C 13,2 C 0,0 km/h (0 Bft)
17.07.2011 01:10 17,1 C 22,7 C 14,8 C 15,8 C 13,1 C 0,0 C 70 % 80 % 0 % 1004,6 hPa 0,0 l/m 0,0 km/h (0 Bft) N 0 0 min 0,0 UV-I 11,6 C 13,1 C 0,0 km/h (0 Bft)
17.07.2011 01:15 16,8 C 22,6 C 14,6 C 15,5 C 12,9 C 0,0 C 70 % 80 % 0 % 1004,6 hPa 0,0 l/m 0,0 km/h (0 Bft) W-SW 247 0 min 0,0 UV-I 11,3 C 12,9 C 0,0 km/h (0 Bft)
17.07.2011 01:20 16,8 C 22,6 C 14,5 C 15,5 C 13,0 C 0,0 C 68 % 79 % 0 % 1004,6 hPa 0,0 l/m 0,0 km/h (0 Bft) W-SW 247 0 min 0,0 UV-I 10,9 C 13,0 C 0,0 km/h (0 Bft)
17.07.2011 01:25 16,6 C 22,6 C 14,4 C 15,5 C 13,2 C 0,0 C 69 % 80 % 0 % 1004,6 hPa 0,0 l/m 0,0 km/h (0 Bft) O-NO 67 0 min 0,0 UV-I 10,9 C 13,2 C 0,0 km/h (0 Bft)
17.07.2011 01:30 16,5 C 22,6 C 14,4 C 15,4 C 13,2 C 0,0 C 70 % 80 % 0 % 1003,9 hPa 0,0 l/m 0,0 km/h (0 Bft) O-NO 67 0 min 0,0 UV-I 11,0 C 13,2 C 0,0 km/h (0 Bft)
17.07.2011 01:35 16,5 C 22,6 C 14,5 C 15,4 C 13,2 C 0,0 C 71 % 80 % 0 % 1003,9 hPa 0,0 l/m 0,0 km/h (0 Bft) N-NW 337 0 min 0,0 UV-I 11,2 C 13,2 C 0,0 km/h (0 Bft)
17.07.2011 01:40 16,6 C 22,6 C 14,5 C 15,5 C 13,2 C 0,0 C 70 % 80 % 0 % 1003,9 hPa 0,0 l/m 0,0 km/h (0 Bft) N 360 0 min 0,0 UV-I 11,1 C 13,2 C 0,0 km/h (0 Bft)
17.07.2011 01:45 16,6 C 22,5 C 14,5 C 15,5 C 13,2 C 0,0 C 70 % 79 % 0 % 1003,9 hPa 0,0 l/m 0,0 km/h (0 Bft) N 360 0 min 0,0 UV-I 11,1 C 13,2 C 0,0 km/h (0 Bft)
17.07.2011 01:50 16,6 C 22,5 C 14,5 C 15,5 C 13,3 C 0,0 C 70 % 79 % 0 % 1004,2 hPa 0,0 l/m 0,0 km/h (0 Bft) N 360 0 min 0,0 UV-I 11,1 C 13,3 C 0,0 km/h (0 Bft)
17.07.2011 01:55 16,7 C 22,5 C 14,7 C 15,6 C 13,4 C 0,0 C 71 % 80 % 0 % 1004,2 hPa 0,0 l/m 0,0 km/h (0 Bft) W-SW 247 0 min 0,0 UV-I 11,4 C 13,4 C 0,0 km/h (0 Bft)
17.07.2011 02:00 16,7 C 22,5 C 14,7 C 15,6 C 13,4 C 0,0 C 71 % 80 % 0 % 1004,2 hPa 0,0 l/m 0,0 km/h (0 Bft) NW 315 0 min 0,0 UV-I 11,4 C 13,4 C 0,0 km/h (0 Bft)
17.07.2011 02:10 16,5 C 22,5 C 14,5 C 15,5 C 13,5 C 0,0 C 70 % 79 % 0 % 1003,8 hPa 0,0 l/m 0,0 km/h (0 Bft) N 0 0 min 0,0 UV-I 11,0 C 13,5 C 0,0 km/h (0 Bft)
17.07.2011 02:15 16,5 C 22,5 C 14,6 C 15,5 C 13,5 C 0,0 C 70 % 79 % 0 % 1003,8 hPa 0,0 l/m 0,0 km/h (0 Bft) NW 315 0 min 0,0 UV-I 11,0 C 13,5 C 0,0 km/h (0 Bft)
17.07.2011 02:20 16,5 C 22,4 C 14,6 C 15,5 C 13,4 C 0,0 C 71 % 80 % 0 % 1003,8 hPa 0,0 l/m 0,0 km/h (0 Bft) NW 315 0 min 0,0 UV-I 11,2 C 13,4 C 0,0 km/h (0 Bft)
17.07.2011 02:25 16,4 C 22,4 C 14,7 C 15,4 C 13,4 C 0,0 C 70 % 79 % 0 % 1003,8 hPa 0,0 l/m 0,0 km/h (0 Bft) NW 315 0 min 0,0 UV-I 10,9 C 13,4 C 0,0 km/h (0 Bft)
17.07.2011 02:30 16,4 C 22,4 C 14,7 C 15,4 C 13,4 C 0,0 C 70 % 79 % 0 % 1003,6 hPa 0,0 l/m 0,0 km/h (0 Bft) NW 315 0 min 0,0 UV-I 10,9 C 13,4 C 0,0 km/h (0 Bft)
17.07.2011 02:35 16,5 C 22,4 C 14,5 C 15,5 C 13,4 C 0,0 C 70 % 79 % 0 % 1003,6 hPa 0,0 l/m 0,0 km/h (0 Bft) NW 315 0 min 0,0 UV-I 11,0 C 13,4 C 0,0 km/h (0 Bft)
17.07.2011 02:40 16,5 C 22,4 C 14,4 C 15,5 C 13,4 C 0,0 C 71 % 79 % 0 % 1003,6 hPa 0,0 l/m 0,0 km/h (0 Bft) NW 315 0 min 0,0 UV-I 11,2 C 13,4 C 0,0 km/h (0 Bft)
17.07.2011 02:45 16,4 C 22,4 C 14,5 C 15,4 C 13,4 C 0,0 C 71 % 79 % 0 % 1003,6 hPa 0,0 l/m 0,0 km/h (0 Bft) NW 315 0 min 0,0 UV-I 11,1 C 13,4 C 0,0 km/h (0 Bft)
17.07.2011 02:50 16,4 C 22,3 C 14,5 C 15,4 C 13,4 C 0,0 C 70 % 78 % 0 % 1003,4 hPa 0,0 l/m 0,0 km/h (0 Bft) NW 315 0 min 0,0 UV-I 10,9 C 13,4 C 0,0 km/h (0 Bft)
17.07.2011 02:55 16,4 C 22,3 C 14,5 C 15,4 C 13,5 C 0,0 C 70 % 78 % 0 % 1003,4 hPa 0,0 l/m 0,0 km/h (0 Bft) N 360 0 min 0,0 UV-I 10,9 C 13,5 C 0,0 km/h (0 Bft)
17.07.2011 03:00 16,5 C 22,3 C 14,6 C 15,5 C 13,5 C 0,0 C 70 % 78 % 0 % 1003,4 hPa 0,0 l/m 0,0 km/h (0 Bft) S-SW 202 0 min 0,0 UV-I 11,0 C 13,5 C 0,0 km/h (0 Bft)
17.07.2011 03:10 16,5 C 22,3 C 14,7 C 15,5 C 13,6 C 0,0 C 68 % 78 % 0 % 1003,4 hPa 0,0 l/m 0,3 km/h (0 Bft) N 0 0 min 0,0 UV-I 10,6 C 13,6 C 2,4 km/h (1 Bft)
17.07.2011 03:15 16,5 C 22,3 C 14,5 C 15,6 C 13,9 C 0,0 C 70 % 79 % 0 % 1003,4 hPa 0,0 l/m 1,0 km/h (0 Bft) S 180 0 min 0,0 UV-I 11,0 C 13,9 C 1,8 km/h (1 Bft)
17.07.2011 03:20 16,4 C 22,3 C 14,5 C 15,5 C 13,8 C 0,0 C 71 % 79 % 0 % 1003,4 hPa 0,0 l/m 1,0 km/h (0 Bft) W-SW 247 0 min 0,0 UV-I 11,1 C 13,8 C 0,0 km/h (0 Bft)
17.07.2011 03:25 16,5 C 22,3 C 14,5 C 15,6 C 13,7 C 0,0 C 71 % 80 % 0 % 1003,4 hPa 0,0 l/m 0,2 km/h (0 Bft) W-NW 292 0 min 0,0 UV-I 11,2 C 13,7 C 0,0 km/h (0 Bft)
17.07.2011 03:30 16,4 C 22,3 C 14,5 C 15,5 C 13,6 C 0,0 C 71 % 79 % 0 % 1002,9 hPa 0,0 l/m 0,0 km/h (0 Bft) W-NW 292 0 min 0,0 UV-I 11,1 C 13,6 C 0,0 km/h (0 Bft)
17.07.2011 03:35 16,3 C 22,2 C 14,5 C 15,4 C 13,5 C 0,0 C 71 % 79 % 0 % 1002,9 hPa 0,0 l/m 0,0 km/h (0 Bft) W-NW 292 0 min 0,0 UV-I 11,0 C 13,5 C 0,0 km/h (0 Bft)
17.07.2011 03:40 16,3 C 22,2 C 14,6 C 15,4 C 13,5 C 0,0 C 70 % 78 % 0 % 1002,9 hPa 0,0 l/m 0,0 km/h (0 Bft) W-NW 292 0 min 0,0 UV-I 10,8 C 13,5 C 0,0 km/h (0 Bft)
17.07.2011 03:45 16,3 C 22,2 C 14,6 C 15,4 C 13,6 C 0,0 C 70 % 78 % 0 % 1002,9 hPa 0,0 l/m 0,0 km/h (0 Bft) NW 315 0 min 0,0 UV-I 10,8 C 13,6 C 0,0 km/h (0 Bft)
17.07.2011 03:50 16,3 C 22,2 C 14,5 C 15,4 C 13,7 C 0,0 C 70 % 78 % 0 % 1002,9 hPa 0,0 l/m 0,0 km/h (0 Bft) O-NO 67 0 min 0,0 UV-I 10,8 C 13,7 C 0,0 km/h (0 Bft)
17.07.2011 03:55 16,3 C 22,2 C 14,7 C 15,5 C 13,9 C 0,0 C 70 % 77 % 0 % 1002,9 hPa 0,0 l/m 0,0 km/h (0 Bft) O-NO 67 0 min 0,0 UV-I 10,8 C 13,9 C 0,0 km/h (0 Bft)
17.07.2011 04:00 16,3 C 22,1 C 14,7 C 15,6 C 14,1 C 0,0 C 70 % 77 % 0 % 1002,9 hPa 0,0 l/m 0,0 km/h (0 Bft) NO 45 0 min 0,0 UV-I 10,8 C 14,1 C 0,0 km/h (0 Bft)
17.07.2011 04:10 16,4 C 22,1 C 14,8 C 15,8 C 14,5 C 0,0 C 70 % 76 % 0 % 1002,5 hPa 0,0 l/m 0,0 km/h (0 Bft) N 0 0 min 0,0 UV-I 10,9 C 14,5 C 0,0 km/h (0 Bft)
17.07.2011 04:15 16,4 C 22,1 C 14,9 C 15,8 C 14,7 C 0,0 C 70 % 76 % 0 % 1002,5 hPa 0,0 l/m 0,0 km/h (0 Bft) O-NO 67 0 min 0,0 UV-I 10,9 C 14,7 C 0,0 km/h (0 Bft)
17.07.2011 04:20 16,4 C 22,1 C 15,0 C 15,8 C 14,7 C 0,0 C 70 % 77 % 0 % 1002,5 hPa 0,0 l/m 0,0 km/h (0 Bft) N 360 0 min 0,0 UV-I 10,9 C 14,7 C 0,0 km/h (0 Bft)
17.07.2011 04:25 16,4 C 22,1 C 14,9 C 15,8 C 14,5 C 0,0 C 70 % 78 % 0 % 1002,5 hPa 0,0 l/m 0,0 km/h (0 Bft) N 360 0 min 0,0 UV-I 10,9 C 14,5 C 0,0 km/h (0 Bft)
17.07.2011 04:30 16,5 C 22,1 C 14,8 C 15,8 C 14,3 C 0,0 C 70 % 78 % 0 % 1002,4 hPa 0,0 l/m 0,0 km/h (0 Bft) N 360 0 min 0,0 UV-I 11,0 C 14,3 C 0,0 km/h (0 Bft)
17.07.2011 04:35 16,4 C 22,1 C 14,8 C 15,6 C 14,1 C 0,0 C 71 % 78 % 0 % 1002,4 hPa 0,0 l/m 0,0 km/h (0 Bft) N-NW 337 0 min 0,0 UV-I 11,1 C 14,1 C 0,0 km/h (0 Bft)
17.07.2011 04:40 16,3 C 22,1 C 14,8 C 15,5 C 13,9 C 0,0 C 71 % 79 % 0 % 1002,4 hPa 0,0 l/m 0,0 km/h (0 Bft) NW 315 0 min 0,0 UV-I 11,0 C 13,9 C 0,0 km/h (0 Bft)
17.07.2011 04:45 16,3 C 22,1 C 14,8 C 15,5 C 13,9 C 0,0 C 71 % 80 % 0 % 1002,4 hPa 0,0 l/m 0,0 km/h (0 Bft) NW 315 0 min 0,0 UV-I 11,0 C 13,9 C 0,0 km/h (0 Bft)
17.07.2011 04:50 16,3 C 22,1 C 14,8 C 15,5 C 13,8 C 0,0 C 72 % 80 % 0 % 1002,3 hPa 0,0 l/m 0,0 km/h (0 Bft) NW 315 0 min 0,0 UV-I 11,2 C 13,8 C 0,0 km/h (0 Bft)
17.07.2011 04:55 16,2 C 22,1 C 14,7 C 15,4 C 13,8 C 0,0 C 72 % 80 % 0 % 1002,3 hPa 0,0 l/m 0,0 km/h (0 Bft) N 360 0 min 0,0 UV-I 11,1 C 13,8 C 0,0 km/h (0 Bft)
17.07.2011 05:00 16,3 C 22,0 C 14,8 C 15,5 C 14,0 C 0,0 C 72 % 80 % 0 % 1002,3 hPa 0,0 l/m 0,0 km/h (0 Bft) NW 315 0 min 0,0 UV-I 11,2 C 14,0 C 0,0 km/h (0 Bft)
17.07.2011 05:10 16,3 C 22,0 C 14,9 C 15,6 C 14,3 C 0,0 C 71 % 80 % 0 % 1001,9 hPa 0,0 l/m 0,0 km/h (0 Bft) N 0 0 min 0,0 UV-I 11,0 C 14,3 C 0,0 km/h (0 Bft)
17.07.2011 05:15 16,3 C 22,0 C 14,8 C 15,7 C 14,5 C 0,0 C 71 % 79 % 0 % 1001,9 hPa 0,0 l/m 0,0 km/h (0 Bft) O-NO 67 0 min 0,0 UV-I 11,0 C 14,5 C 0,0 km/h (0 Bft)
17.07.2011 05:20 16,3 C 22,0 C 15,0 C 15,8 C 14,7 C 0,0 C 72 % 79 % 0 % 1001,9 hPa 0,0 l/m 0,0 km/h (0 Bft) O-NO 67 0 min 0,0 UV-I 11,2 C 14,7 C 0,0 km/h (0 Bft)
17.07.2011 05:25 16,3 C 22,0 C 15,1 C 15,8 C 14,9 C 0,0 C 71 % 80 % 0 % 1001,9 hPa 0,0 l/m 0,0 km/h (0 Bft) O 90 0 min 0,0 UV-I 11,0 C 14,9 C 0,0 km/h (0 Bft)
17.07.2011 05:30 16,3 C 22,0 C 15,1 C 15,9 C 15,0 C 0,0 C 73 % 80 % 0 % 1001,5 hPa 0,0 l/m 0,0 km/h (0 Bft) O-NO 67 0 min 0,0 UV-I 11,4 C 15,0 C 0,0 km/h (0 Bft)
17.07.2011 05:35 16,4 C 22,0 C 15,1 C 15,9 C 15,0 C 0,0 C 73 % 81 % 0 % 1001,5 hPa 0,0 l/m 0,0 km/h (0 Bft) W 270 0 min 0,0 UV-I 11,5 C 15,0 C 0,0 km/h (0 Bft)
17.07.2011 05:40 16,4 C 22,0 C 15,1 C 16,0 C 15,2 C 0,0 C 73 % 80 % 0 % 1001,5 hPa 0,0 l/m 0,0 km/h (0 Bft) W 270 0 min 0,0 UV-I 11,5 C 15,2 C 0,0 km/h (0 Bft)
17.07.2011 05:45 16,4 C 22,0 C 15,2 C 16,0 C 15,3 C 0,0 C 73 % 80 % 0 % 1001,5 hPa 0,0 l/m 0,0 km/h (0 Bft) W 270 0 min 0,0 UV-I 11,5 C 15,3 C 0,0 km/h (0 Bft)
17.07.2011 05:50 16,5 C 22,0 C 15,3 C 16,1 C 15,4 C 0,0 C 73 % 80 % 0 % 1001,6 hPa 0,0 l/m 0,0 km/h (0 Bft) W 270 0 min 0,0 UV-I 11,6 C 15,4 C 0,0 km/h (0 Bft)
17.07.2011 05:55 16,5 C 22,0 C 15,3 C 16,2 C 15,6 C 0,0 C 72 % 80 % 0 % 1001,6 hPa 0,0 l/m 0,0 km/h (0 Bft) W 270 0 min 0,0 UV-I 11,4 C 15,6 C 1,8 km/h (1 Bft)
17.07.2011 06:00 16,5 C 22,0 C 15,4 C 16,2 C 15,7 C 0,0 C 74 % 81 % 0 % 1001,6 hPa 0,0 l/m 0,3 km/h (0 Bft) O 90 0 min 0,0 UV-I 11,8 C 15,7 C 0,0 km/h (0 Bft)
17.07.2011 06:10 16,7 C 21,9 C 15,7 C 16,6 C 16,3 C 0,0 C 72 % 79 % 0 % 1001,6 hPa 0,0 l/m 0,0 km/h (0 Bft) N 0 0 min 0,2 UV-I 11,6 C 16,3 C 0,0 km/h (0 Bft)
17.07.2011 06:15 16,9 C 21,8 C 16,1 C 16,8 C 16,7 C 0,0 C 70 % 74 % 0 % 1001,6 hPa 0,0 l/m 0,0 km/h (0 Bft) O-SO 112 0 min 0,5 UV-I 11,4 C 16,7 C 0,0 km/h (0 Bft)
17.07.2011 06:20 16,9 C 21,8 C 16,4 C 17,0 C 17,0 C 0,1 C 68 % 72 % 3 % 1001,6 hPa 0,0 l/m 0,0 km/h (0 Bft) O 90 0 min 0,5 UV-I 11,0 C 17,0 C 0,0 km/h (0 Bft)
17.07.2011 06:25 17,1 C 21,8 C 16,7 C 17,2 C 17,2 C 0,1 C 68 % 72 % 3 % 1001,6 hPa 0,0 l/m 0,0 km/h (0 Bft) O-SO 112 0 min 1,2 UV-I 11,1 C 17,2 C 0,0 km/h (0 Bft)
17.07.2011 06:30 17,2 C 21,8 C 16,8 C 17,4 C 17,4 C 0,2 C 67 % 71 % 5 % 1001,4 hPa 0,0 l/m 0,0 km/h (0 Bft) O-SO 112 0 min 1,3 UV-I 11,0 C 17,4 C 0,0 km/h (0 Bft)
17.07.2011 06:35 17,3 C 21,8 C 16,9 C 17,6 C 17,6 C 0,3 C 67 % 71 % 8 % 1001,4 hPa 0,0 l/m 0,0 km/h (0 Bft) SO 135 0 min 1,2 UV-I 11,1 C 17,6 C 0,0 km/h (0 Bft)
17.07.2011 06:40 17,5 C 21,8 C 17,1 C 17,6 C 17,6 C 0,1 C 67 % 72 % 3 % 1001,4 hPa 0,0 l/m 0,0 km/h (0 Bft) NO 45 0 min 1,1 UV-I 11,3 C 17,6 C 0,0 km/h (0 Bft)
17.07.2011 06:45 17,5 C 21,8 C 16,7 C 17,5 C 17,5 C 0,0 C 71 % 76 % 0 % 1001,4 hPa 0,0 l/m 0,3 km/h (0 Bft) SW 225 0 min 1,0 UV-I 12,2 C 17,5 C 0,0 km/h (0 Bft)
17.07.2011 06:50 17,5 C 21,8 C 16,5 C 17,4 C 17,2 C 0,0 C 73 % 77 % 0 % 1001,1 hPa 0,0 l/m 0,3 km/h (0 Bft) SW 225 0 min 0,7 UV-I 12,6 C 17,2 C 0,0 km/h (0 Bft)
17.07.2011 06:55 17,4 C 21,8 C 16,4 C 17,5 C 17,5 C 0,1 C 72 % 78 % 3 % 1001,1 hPa 0,0 l/m 0,0 km/h (0 Bft) W-SW 247 0 min 0,5 UV-I 12,3 C 17,5 C 0,0 km/h (0 Bft)
17.07.2011 07:00 17,5 C 21,8 C 16,6 C 17,9 C 17,9 C 0,4 C 71 % 77 % 11 % 1001,1 hPa 0,0 l/m 0,0 km/h (0 Bft) W 270 0 min 1,4 UV-I 12,2 C 17,9 C 0,0 km/h (0 Bft)
17.07.2011 07:10 17,7 C 21,7 C 17,1 C 19,7 C 19,7 C 2,0 C 70 % 77 % 53 % 1001,3 hPa 0,0 l/m 0,0 km/h (0 Bft) N 0 0 min 4,7 UV-I 12,2 C 19,7 C 0,0 km/h (0 Bft)
17.07.2011 07:15 18,0 C 21,7 C 17,6 C 21,1 C 21,1 C 3,1 C 68 % 73 % 82 % 1001,3 hPa 0,0 l/m 0,0 km/h (0 Bft) S 180 5 min 4,7 UV-I 12,0 C 21,1 C 0,0 km/h (0 Bft)
17.07.2011 07:20 18,3 C 21,7 C 17,9 C 21,9 C 21,9 C 3,6 C 67 % 73 % 95 % 1001,3 hPa 0,0 l/m 0,0 km/h (0 Bft) S 180 5 min 7,2 UV-I 12,1 C 21,9 C 0,0 km/h (0 Bft)
17.07.2011 07:25 18,4 C 21,8 C 18,0 C 23,2 C 23,2 C 4,8 C 67 % 73 % 100 % 1001,3 hPa 0,0 l/m 0,0 km/h (0 Bft) S 180 5 min 1,8 UV-I 12,2 C 23,2 C 0,0 km/h (0 Bft)
17.07.2011 07:30 18,6 C 21,8 C 18,1 C 23,6 C 23,6 C 5,0 C 67 % 72 % 100 % 1001,2 hPa 0,0 l/m 0,0 km/h (0 Bft) S 180 5 min 0,2 UV-I 12,3 C 23,6 C 0,0 km/h (0 Bft)
17.07.2011 07:35 18,7 C 21,8 C 18,3 C 23,7 C 23,7 C 5,0 C 68 % 72 % 100 % 1001,2 hPa 0,0 l/m 0,0 km/h (0 Bft) S 180 5 min 0,2 UV-I 12,7 C 23,7 C 0,0 km/h (0 Bft)
17.07.2011 07:40 18,9 C 21,8 C 18,5 C 23,9 C 23,9 C 5,0 C 68 % 73 % 100 % 1001,2 hPa 0,0 l/m 0,0 km/h (0 Bft) S 180 5 min 0,2 UV-I 12,9 C 23,9 C 0,0 km/h (0 Bft)
17.07.2011 07:45 19,0 C 21,8 C 18,5 C 24,5 C 24,5 C 5,5 C 68 % 73 % 100 % 1001,2 hPa 0,0 l/m 0,0 km/h (0 Bft) S 180 5 min 0,1 UV-I 13,0 C 24,5 C 0,0 km/h (0 Bft)
17.07.2011 07:50 19,1 C 21,8 C 18,5 C 25,4 C 25,4 C 6,3 C 68 % 74 % 100 % 1001,3 hPa 0,0 l/m 0,0 km/h (0 Bft) SW 225 5 min 0,1 UV-I 13,1 C 25,4 C 0,0 km/h (0 Bft)
17.07.2011 07:55 19,3 C 21,8 C 18,7 C 25,3 C 25,3 C 6,0 C 69 % 75 % 100 % 1001,3 hPa 0,0 l/m 0,0 km/h (0 Bft) S 180 5 min 0,1 UV-I 13,5 C 25,3 C 0,0 km/h (0 Bft)
17.07.2011 08:00 19,3 C 21,8 C 18,9 C 24,5 C 24,5 C 5,2 C 71 % 76 % 100 % 1001,3 hPa 0,0 l/m 0,0 km/h (0 Bft) S 180 5 min 0,1 UV-I 13,9 C 24,5 C 0,0 km/h (0 Bft)
17.07.2011 08:10 19,3 C 21,8 C 18,9 C 23,1 C 23,1 C 3,8 C 70 % 75 % 100 % 1001,1 hPa 0,0 l/m 0,0 km/h (0 Bft) N 0 10 min 0,1 UV-I 13,7 C 23,1 C 0,0 km/h (0 Bft)
17.07.2011 08:15 19,5 C 21,7 C 19,0 C 22,7 C 22,7 C 3,2 C 69 % 74 % 84 % 1001,1 hPa 0,0 l/m 0,0 km/h (0 Bft) S 180 0 min 0,1 UV-I 13,7 C 22,7 C 0,0 km/h (0 Bft)
17.07.2011 08:20 19,5 C 21,7 C 19,2 C 22,5 C 22,5 C 3,0 C 69 % 72 % 79 % 1001,1 hPa 0,0 l/m 0,0 km/h (0 Bft) W-SW 247 0 min 0,1 UV-I 13,7 C 22,5 C 0,0 km/h (0 Bft)
17.07.2011 08:25 19,5 C 21,7 C 19,3 C 22,3 C 22,3 C 2,8 C 67 % 72 % 74 % 1001,1 hPa 0,0 l/m 0,0 km/h (0 Bft) N-NO 22 0 min 0,1 UV-I 13,2 C 22,3 C 0,0 km/h (0 Bft)
17.07.2011 08:30 19,6 C 21,7 C 19,2 C 22,7 C 22,7 C 3,1 C 67 % 72 % 82 % 1001,1 hPa 0,0 l/m 0,0 km/h (0 Bft) S 180 0 min 0,2 UV-I 13,3 C 22,7 C 0,0 km/h (0 Bft)
17.07.2011 08:35 19,8 C 21,7 C 19,5 C 24,0 C 24,0 C 4,2 C 65 % 69 % 100 % 1001,1 hPa 0,0 l/m 0,0 km/h (0 Bft) S 180 5 min 0,2 UV-I 13,0 C 24,0 C 0,0 km/h (0 Bft)
17.07.2011 08:40 19,9 C 21,7 C 19,7 C 24,6 C 24,6 C 4,7 C 65 % 71 % 100 % 1001,1 hPa 0,0 l/m 0,0 km/h (0 Bft) O 90 5 min 0,2 UV-I 13,1 C 24,6 C 0,0 km/h (0 Bft)
17.07.2011 08:45 20,4 C 21,7 C 19,7 C 25,9 C 25,9 C 5,5 C 64 % 70 % 100 % 1001,1 hPa 0,0 l/m 0,0 km/h (0 Bft) S-SO 157 5 min 0,2 UV-I 13,4 C 25,9 C 0,0 km/h (0 Bft)
17.07.2011 08:50 20,4 C 21,8 C 19,8 C 26,7 C 26,7 C 6,3 C 63 % 69 % 100 % 1001,2 hPa 0,0 l/m 0,0 km/h (0 Bft) S 180 5 min 0,2 UV-I 13,1 C 26,7 C 0,0 km/h (0 Bft)
17.07.2011 08:55 20,7 C 21,7 C 19,9 C 26,8 C 26,8 C 6,1 C 63 % 70 % 100 % 1001,2 hPa 0,0 l/m 0,2 km/h (0 Bft) S-SW 202 5 min 0,2 UV-I 13,4 C 26,8 C 0,0 km/h (0 Bft)
17.07.2011 09:00 20,8 C 21,7 C 19,9 C 26,5 C 26,5 C 5,7 C 63 % 68 % 100 % 1001,2 hPa 0,0 l/m 0,5 km/h (0 Bft) NO 45 5 min 0,2 UV-I 13,5 C 26,5 C 0,0 km/h (0 Bft)
17.07.2011 09:12 21,1 C 21,7 C 20,3 C 27,1 C 27,1 C 6,0 C 63 % 69 % 100 % 1000,8 hPa 0,0 l/m 1,1 km/h (1 Bft) N 0 12 min 0,3 UV-I 13,8 C 27,1 C 6,9 km/h (2 Bft)
17.07.2011 09:20 21,2 C 21,7 C 20,4 C 26,7 C 26,7 C 5,5 C 63 % 69 % 100 % 1000,8 hPa 0,0 l/m 0,2 km/h (0 Bft) W-NW 292 8 min 0,2 UV-I 13,9 C 26,7 C 0,0 km/h (0 Bft)
17.07.2011 09:25 21,3 C 21,7 C 20,3 C 26,3 C 26,3 C 5,0 C 62 % 70 % 100 % 1000,8 hPa 0,0 l/m 0,0 km/h (0 Bft) SW 225 5 min 0,2 UV-I 13,7 C 26,3 C 0,0 km/h (0 Bft)
17.07.2011 09:30 21,2 C 21,7 C 20,3 C 26,4 C 26,4 C 5,2 C 63 % 70 % 100 % 1000,4 hPa 0,0 l/m 0,0 km/h (0 Bft) NO 45 5 min 0,2 UV-I 13,9 C 26,4 C 0,0 km/h (0 Bft)
17.07.2011 09:35 21,3 C 21,7 C 20,5 C 26,4 C 26,4 C 5,1 C 62 % 69 % 100 % 1000,4 hPa 0,0 l/m 0,0 km/h (0 Bft) O 90 5 min 0,3 UV-I 13,7 C 26,4 C 0,0 km/h (0 Bft)
17.07.2011 09:40 21,5 C 21,8 C 20,7 C 26,5 C 26,5 C 5,0 C 63 % 69 % 100 % 1000,4 hPa 0,0 l/m 0,0 km/h (0 Bft) O-SO 112 5 min 0,3 UV-I 14,2 C 26,5 C 0,0 km/h (0 Bft)
17.07.2011 09:45 21,6 C 21,8 C 20,6 C 27,9 C 27,9 C 6,3 C 64 % 71 % 100 % 1000,4 hPa 0,0 l/m 0,0 km/h (0 Bft) S 180 5 min 0,4 UV-I 14,5 C 27,9 C 0,0 km/h (0 Bft)
17.07.2011 09:50 21,7 C 21,8 C 20,6 C 29,0 C 29,0 C 7,3 C 64 % 72 % 100 % 1000,9 hPa 0,0 l/m 0,2 km/h (0 Bft) SW 225 5 min 0,3 UV-I 14,6 C 29,0 C 0,0 km/h (0 Bft)
17.07.2011 09:55 21,7 C 21,8 C 21,0 C 29,5 C 29,5 C 7,8 C 63 % 70 % 100 % 1000,9 hPa 0,0 l/m 0,2 km/h (0 Bft) SO 135 5 min 0,3 UV-I 14,3 C 29,5 C 0,0 km/h (0 Bft)
17.07.2011 10:00 21,8 C 21,8 C 21,3 C 29,4 C 29,4 C 7,6 C 63 % 69 % 100 % 1000,9 hPa 0,0 l/m 0,2 km/h (0 Bft) W-SW 247 5 min 0,4 UV-I 14,4 C 29,4 C 0,0 km/h (0 Bft)
17.07.2011 10:10 22,2 C 21,7 C 21,5 C 32,5 C 32,5 C 10,3 C 63 % 70 % 100 % 1000,6 hPa 0,0 l/m 0,6 km/h (0 Bft) N 0 10 min 0,4 UV-I 14,8 C 32,5 C 0,0 km/h (0 Bft)
17.07.2011 10:15 22,5 C 21,8 C 21,7 C 33,5 C 33,5 C 11,0 C 64 % 70 % 100 % 1000,6 hPa 0,0 l/m 0,8 km/h (0 Bft) S 180 5 min 0,4 UV-I 15,3 C 33,5 C 7,2 km/h (2 Bft)
17.07.2011 10:20 22,6 C 21,8 C 22,1 C 33,0 C 33,0 C 10,4 C 63 % 67 % 100 % 1000,6 hPa 0,0 l/m 1,8 km/h (1 Bft) W-SW 247 5 min 0,4 UV-I 15,2 C 33,0 C 4,3 km/h (1 Bft)
17.07.2011 10:25 22,9 C 21,8 C 22,6 C 32,8 C 32,8 C 9,9 C 61 % 65 % 100 % 1000,6 hPa 0,0 l/m 2,7 km/h (1 Bft) N 360 5 min 0,4 UV-I 15,0 C 32,8 C 8,2 km/h (2 Bft)
17.07.2011 10:30 23,1 C 21,8 C 22,7 C 32,4 C 32,4 C 9,3 C 61 % 64 % 100 % 1000,8 hPa 0,0 l/m 3,5 km/h (1 Bft) W-SW 247 5 min 0,4 UV-I 15,2 C 32,4 C 14,6 km/h (3 Bft)
17.07.2011 10:35 23,3 C 21,8 C 23,0 C 30,1 C 30,1 C 6,8 C 59 % 64 % 100 % 1000,8 hPa 0,0 l/m 5,1 km/h (1 Bft) SW 225 5 min 0,4 UV-I 14,8 C 30,1 C 21,1 km/h (4 Bft)
17.07.2011 10:40 23,5 C 21,9 C 23,1 C 31,0 C 31,0 C 7,5 C 58 % 63 % 100 % 1000,8 hPa 0,0 l/m 4,3 km/h (1 Bft) O 90 5 min 0,6 UV-I 14,7 C 31,0 C 2,1 km/h (1 Bft)
17.07.2011 10:45 23,7 C 21,8 C 23,2 C 31,3 C 31,3 C 7,6 C 58 % 63 % 100 % 1000,8 hPa 0,0 l/m 3,1 km/h (1 Bft) SW 225 5 min 0,6 UV-I 14,9 C 31,3 C 3,1 km/h (1 Bft)
17.07.2011 10:50 23,9 C 21,9 C 23,2 C 30,9 C 30,9 C 7,0 C 57 % 62 % 100 % 1000,2 hPa 0,0 l/m 3,4 km/h (1 Bft) S-SW 202 5 min 0,5 UV-I 14,9 C 30,9 C 3,1 km/h (1 Bft)
17.07.2011 10:55 24,0 C 21,8 C 23,5 C 32,1 C 32,1 C 8,1 C 57 % 61 % 100 % 1000,2 hPa 0,0 l/m 2,6 km/h (1 Bft) O-SO 112 5 min 0,7 UV-I 14,9 C 32,1 C 8,4 km/h (2 Bft)
17.07.2011 11:00 24,3 C 21,9 C 23,6 C 31,2 C 31,2 C 6,9 C 56 % 59 % 100 % 1000,2 hPa 0,0 l/m 2,4 km/h (1 Bft) SO 135 5 min 0,3 UV-I 14,9 C 31,2 C 5,3 km/h (1 Bft)
17.07.2011 11:10 24,2 C 21,9 C 23,4 C 28,6 C 28,6 C 4,4 C 56 % 62 % 100 % 1000,5 hPa 0,0 l/m 2,4 km/h (1 Bft) N 0 10 min 0,2 UV-I 14,9 C 28,6 C 1,8 km/h (1 Bft)
17.07.2011 11:15 24,2 C 21,9 C 23,5 C 27,8 C 27,8 C 3,6 C 56 % 60 % 95 % 1000,5 hPa 0,0 l/m 3,2 km/h (1 Bft) N-NO 22 5 min 0,3 UV-I 14,9 C 27,8 C 2,4 km/h (1 Bft)
17.07.2011 11:20 24,3 C 21,9 C 23,7 C 27,6 C 27,6 C 3,3 C 55 % 58 % 87 % 1000,5 hPa 0,0 l/m 3,9 km/h (1 Bft) SO 135 5 min 0,3 UV-I 14,7 C 27,6 C 2,6 km/h (1 Bft)
17.07.2011 11:25 24,4 C 21,9 C 23,7 C 27,8 C 27,8 C 3,4 C 56 % 60 % 89 % 1000,5 hPa 0,0 l/m 4,0 km/h (1 Bft) SW 225 5 min 0,4 UV-I 15,0 C 27,8 C 7,7 km/h (2 Bft)
17.07.2011 11:30 24,5 C 21,9 C 23,8 C 27,8 C 27,8 C 3,3 C 55 % 58 % 87 % 1000,3 hPa 0,0 l/m 4,5 km/h (1 Bft) W 270 5 min 0,4 UV-I 14,9 C 27,8 C 10,1 km/h (2 Bft)
17.07.2011 11:35 24,5 C 22,0 C 23,7 C 27,6 C 27,6 C 3,1 C 56 % 59 % 82 % 1000,3 hPa 0,0 l/m 6,3 km/h (2 Bft) SW 225 0 min 0,4 UV-I 15,1 C 27,6 C 24,3 km/h (4 Bft)
17.07.2011 11:40 24,4 C 22,0 C 23,6 C 27,1 C 27,1 C 2,7 C 55 % 59 % 71 % 1000,3 hPa 0,0 l/m 6,3 km/h (2 Bft) W-SW 247 0 min 0,3 UV-I 14,8 C 27,1 C 3,1 km/h (1 Bft)
17.07.2011 11:45 24,4 C 22,0 C 23,5 C 26,3 C 26,3 C 1,9 C 56 % 59 % 50 % 1000,3 hPa 0,0 l/m 6,3 km/h (2 Bft) S-SO 157 0 min 0,2 UV-I 15,0 C 26,3 C 6,4 km/h (2 Bft)
17.07.2011 11:50 24,3 C 22,0 C 23,3 C 25,8 C 25,8 C 1,5 C 56 % 60 % 39 % 1000,8 hPa 0,0 l/m 5,3 km/h (1 Bft) W-NW 292 0 min 0,1 UV-I 14,9 C 25,8 C 7,7 km/h (2 Bft)
17.07.2011 11:55 24,3 C 22,0 C 23,3 C 25,5 C 25,5 C 1,2 C 56 % 61 % 32 % 1000,8 hPa 0,0 l/m 6,8 km/h (2 Bft) W-NW 292 0 min 0,1 UV-I 14,9 C 25,5 C 7,4 km/h (2 Bft)
17.07.2011 12:00 24,2 C 22,0 C 23,3 C 25,5 C 25,5 C 1,3 C 57 % 60 % 34 % 1000,8 hPa 0,0 l/m 8,5 km/h (2 Bft) SW 225 0 min 0,2 UV-I 15,1 C 25,5 C 14,3 km/h (3 Bft)
17.07.2011 12:10 24,1 C 22,0 C 23,6 C 26,3 C 26,3 C 2,2 C 58 % 60 % 58 % 1001,0 hPa 0,0 l/m 8,4 km/h (2 Bft) N 0 0 min 0,5 UV-I 15,3 C 26,3 C 23,2 km/h (4 Bft)
17.07.2011 12:15 24,0 C 22,1 C 23,7 C 26,5 C 26,5 C 2,5 C 58 % 59 % 66 % 1001,0 hPa 0,0 l/m 9,8 km/h (2 Bft) W 270 0 min 0,5 UV-I 15,2 C 26,5 C 24,5 km/h (4 Bft)
17.07.2011 12:20 24,0 C 22,1 C 23,8 C 26,5 C 26,5 C 2,5 C 58 % 59 % 66 % 1001,0 hPa 0,0 l/m 11,1 km/h (2 Bft) S-SW 202 0 min 0,5 UV-I 15,2 C 26,5 C 10,3 km/h (2 Bft)
17.07.2011 12:25 24,0 C 22,1 C 23,6 C 26,3 C 26,3 C 2,3 C 58 % 61 % 61 % 1001,0 hPa 0,0 l/m 11,7 km/h (2 Bft) W-SW 247 0 min 0,4 UV-I 15,2 C 26,3 C 26,6 km/h (4 Bft)
17.07.2011 12:30 23,9 C 22,1 C 23,4 C 25,9 C 25,9 C 2,0 C 59 % 62 % 53 % 1001,0 hPa 0,0 l/m 10,8 km/h (2 Bft) S 180 0 min 0,4 UV-I 15,4 C 25,9 C 14,0 km/h (3 Bft)
17.07.2011 12:35 23,9 C 22,1 C 23,2 C 25,3 C 25,3 C 1,4 C 59 % 62 % 37 % 1001,0 hPa 0,0 l/m 10,5 km/h (2 Bft) W-SW 247 0 min 0,3 UV-I 15,4 C 25,3 C 13,8 km/h (3 Bft)
17.07.2011 12:40 23,7 C 22,2 C 23,0 C 25,1 C 25,1 C 1,4 C 60 % 63 % 37 % 1001,0 hPa 0,0 l/m 11,3 km/h (2 Bft) W-SW 247 0 min 0,4 UV-I 15,5 C 25,1 C 9,7 km/h (2 Bft)
17.07.2011 12:45 23,5 C 22,2 C 22,7 C 24,5 C 24,5 C 1,0 C 60 % 64 % 26 % 1001,0 hPa 0,0 l/m 10,1 km/h (2 Bft) S-SW 202 0 min 0,2 UV-I 15,3 C 24,5 C 10,0 km/h (2 Bft)
17.07.2011 12:50 23,5 C 22,2 C 22,5 C 24,1 C 24,1 C 0,6 C 60 % 64 % 16 % 1001,4 hPa 0,0 l/m 10,5 km/h (2 Bft) NW 315 0 min 0,3 UV-I 15,3 C 24,1 C 15,3 km/h (3 Bft)
17.07.2011 12:55 23,4 C 22,2 C 22,4 C 24,0 C 24,0 C 0,6 C 60 % 64 % 16 % 1001,4 hPa 0,0 l/m 10,3 km/h (2 Bft) W-SW 247 0 min 0,3 UV-I 15,2 C 24,0 C 9,5 km/h (2 Bft)
17.07.2011 13:00 23,3 C 22,2 C 22,3 C 24,1 C 24,1 C 0,8 C 60 % 65 % 21 % 1001,4 hPa 0,0 l/m 9,0 km/h (2 Bft) W 270 0 min 0,3 UV-I 15,1 C 24,1 C 12,2 km/h (2 Bft)
17.07.2011 13:10 23,2 C 22,2 C 22,4 C 24,6 C 24,6 C 1,4 C 60 % 65 % 37 % 1001,2 hPa 0,0 l/m 8,2 km/h (2 Bft) N 0 0 min 0,4 UV-I 15,0 C 24,6 C 8,4 km/h (2 Bft)
17.07.2011 13:15 23,2 C 22,3 C 22,3 C 24,9 C 24,9 C 1,7 C 60 % 64 % 45 % 1001,2 hPa 0,0 l/m 8,4 km/h (2 Bft) W-SW 247 0 min 0,4 UV-I 15,0 C 24,9 C 23,2 km/h (4 Bft)
17.07.2011 13:20 23,2 C 22,3 C 22,3 C 24,7 C 24,7 C 1,5 C 60 % 64 % 39 % 1001,2 hPa 0,0 l/m 9,2 km/h (2 Bft) S-SW 202 0 min 0,4 UV-I 15,0 C 24,7 C 16,6 km/h (3 Bft)
17.07.2011 13:25 23,1 C 22,3 C 22,3 C 24,6 C 24,6 C 1,5 C 60 % 64 % 39 % 1001,2 hPa 0,0 l/m 11,3 km/h (2 Bft) S 180 0 min 0,4 UV-I 14,9 C 24,6 C 28,0 km/h (4 Bft)
17.07.2011 13:30 23,1 C 22,3 C 22,3 C 24,4 C 24,4 C 1,3 C 60 % 64 % 34 % 1001,1 hPa 0,0 l/m 10,9 km/h (2 Bft) SO 135 0 min 0,4 UV-I 14,9 C 24,4 C 6,8 km/h (2 Bft)
17.07.2011 13:35 23,1 C 22,3 C 22,3 C 24,6 C 24,6 C 1,5 C 61 % 64 % 39 % 1001,1 hPa 0,0 l/m 10,3 km/h (2 Bft) W-SW 247 0 min 0,4 UV-I 15,2 C 24,6 C 17,2 km/h (3 Bft)
17.07.2011 13:40 23,1 C 22,3 C 22,3 C 24,5 C 24,5 C 1,4 C 60 % 64 % 37 % 1001,1 hPa 0,0 l/m 10,1 km/h (2 Bft) W 270 0 min 0,4 UV-I 14,9 C 24,5 C 13,0 km/h (3 Bft)
17.07.2011 13:45 23,0 C 22,3 C 22,1 C 24,5 C 24,5 C 1,5 C 60 % 64 % 39 % 1001,1 hPa 0,0 l/m 8,9 km/h (2 Bft) N-NW 337 0 min 0,4 UV-I 14,8 C 24,5 C 9,5 km/h (2 Bft)
17.07.2011 13:50 22,9 C 22,3 C 22,1 C 24,2 C 24,2 C 1,3 C 60 % 65 % 34 % 1001,3 hPa 0,0 l/m 7,6 km/h (2 Bft) SW 225 0 min 0,2 UV-I 14,7 C 24,2 C 13,4 km/h (3 Bft)
17.07.2011 13:55 22,8 C 22,3 C 21,9 C 23,8 C 23,8 C 1,0 C 60 % 65 % 26 % 1001,3 hPa 0,0 l/m 6,9 km/h (2 Bft) S 180 0 min 0,2 UV-I 14,6 C 23,8 C 12,4 km/h (3 Bft)
17.07.2011 14:00 22,9 C 22,3 C 21,9 C 23,6 C 23,6 C 0,7 C 60 % 66 % 18 % 1001,3 hPa 0,0 l/m 6,6 km/h (2 Bft) N-NW 337 0 min 0,2 UV-I 14,7 C 23,6 C 6,0 km/h (2 Bft)
17.07.2011 14:10 22,7 C 22,4 C 21,7 C 24,0 C 24,0 C 1,3 C 60 % 66 % 34 % 1001,3 hPa 0,0 l/m 3,4 km/h (1 Bft) N 0 0 min 0,3 UV-I 14,5 C 24,0 C 2,3 km/h (1 Bft)
17.07.2011 14:15 22,6 C 22,4 C 21,7 C 24,3 C 24,3 C 1,7 C 61 % 67 % 45 % 1001,3 hPa 0,0 l/m 2,9 km/h (1 Bft) SO 135 0 min 0,4 UV-I 14,7 C 24,3 C 3,1 km/h (1 Bft)
17.07.2011 14:20 22,6 C 22,4 C 21,7 C 24,3 C 24,3 C 1,7 C 61 % 68 % 45 % 1001,3 hPa 0,0 l/m 2,6 km/h (1 Bft) W-SW 247 0 min 0,3 UV-I 14,7 C 24,3 C 3,4 km/h (1 Bft)
17.07.2011 14:25 22,7 C 22,4 C 21,6 C 23,9 C 23,9 C 1,2 C 62 % 68 % 32 % 1001,3 hPa 0,0 l/m 2,7 km/h (1 Bft) W-SW 247 0 min 0,2 UV-I 15,0 C 23,9 C 4,7 km/h (1 Bft)
17.07.2011 14:30 22,7 C 22,4 C 21,5 C 23,8 C 23,8 C 1,1 C 62 % 68 % 29 % 1001,2 hPa 0,0 l/m 2,9 km/h (1 Bft) O 90 0 min 0,2 UV-I 15,0 C 23,8 C 3,7 km/h (1 Bft)
17.07.2011 14:35 22,6 C 22,4 C 21,5 C 23,4 C 23,4 C 0,8 C 62 % 68 % 21 % 1001,2 hPa 0,0 l/m 2,6 km/h (1 Bft) S-SW 202 0 min 0,1 UV-I 14,9 C 23,4 C 6,4 km/h (2 Bft)
17.07.2011 14:40 22,5 C 22,4 C 21,5 C 23,4 C 23,4 C 0,9 C 62 % 67 % 24 % 1001,2 hPa 0,0 l/m 2,7 km/h (1 Bft) O-SO 112 0 min 0,1 UV-I 14,8 C 23,4 C 3,9 km/h (1 Bft)
17.07.2011 14:45 22,5 C 22,4 C 21,4 C 23,2 C 23,2 C 0,7 C 62 % 68 % 18 % 1001,2 hPa 0,0 l/m 2,1 km/h (1 Bft) S-SO 157 0 min 0,2 UV-I 14,8 C 23,2 C 4,3 km/h (1 Bft)
17.07.2011 14:50 22,5 C 22,4 C 21,3 C 23,1 C 23,1 C 0,6 C 63 % 68 % 16 % 1001,1 hPa 0,0 l/m 1,8 km/h (1 Bft) NW 315 0 min 0,1 UV-I 15,1 C 23,1 C 0,0 km/h (0 Bft)
17.07.2011 14:55 22,5 C 22,4 C 21,3 C 23,2 C 23,2 C 0,7 C 63 % 68 % 18 % 1001,1 hPa 0,0 l/m 2,6 km/h (1 Bft) O-SO 112 0 min 0,2 UV-I 15,1 C 23,2 C 6,4 km/h (2 Bft)
17.07.2011 15:00 22,5 C 22,4 C 21,4 C 23,2 C 23,2 C 0,7 C 62 % 69 % 18 % 1001,1 hPa 0,0 l/m 2,3 km/h (1 Bft) SW 225 0 min 0,1 UV-I 14,8 C 23,2 C 8,4 km/h (2 Bft)
17.07.2011 15:10 22,5 C 22,4 C 21,5 C 23,5 C 23,5 C 1,0 C 62 % 69 % 26 % 1001,4 hPa 0,0 l/m 2,4 km/h (1 Bft) N 0 0 min 0,2 UV-I 14,8 C 23,5 C 2,6 km/h (1 Bft)
17.07.2011 15:15 22,5 C 22,4 C 21,5 C 23,5 C 23,5 C 1,0 C 62 % 69 % 26 % 1001,4 hPa 0,0 l/m 1,4 km/h (1 Bft) O-SO 112 0 min 0,2 UV-I 14,8 C 23,5 C 0,0 km/h (0 Bft)
17.07.2011 15:20 22,5 C 22,4 C 21,3 C 23,3 C 23,3 C 0,8 C 61 % 67 % 21 % 1001,4 hPa 0,0 l/m 1,4 km/h (1 Bft) W-NW 292 0 min 0,1 UV-I 14,6 C 23,3 C 3,4 km/h (1 Bft)
17.07.2011 15:25 22,4 C 22,5 C 21,3 C 23,2 C 23,2 C 0,8 C 61 % 66 % 21 % 1001,4 hPa 0,0 l/m 2,1 km/h (1 Bft) W-SW 247 0 min 0,1 UV-I 14,5 C 23,2 C 4,5 km/h (1 Bft)
17.07.2011 15:30 22,5 C 22,5 C 21,3 C 23,1 C 23,1 C 0,6 C 61 % 67 % 16 % 1001,4 hPa 0,0 l/m 2,6 km/h (1 Bft) S 180 0 min 0,1 UV-I 14,6 C 23,1 C 5,8 km/h (2 Bft)
17.07.2011 15:35 22,5 C 22,5 C 21,3 C 23,0 C 23,0 C 0,5 C 60 % 65 % 13 % 1001,4 hPa 0,0 l/m 3,2 km/h (1 Bft) O-SO 112 0 min 0,2 UV-I 14,3 C 23,0 C 3,4 km/h (1 Bft)
17.07.2011 15:40 22,4 C 22,5 C 21,4 C 22,9 C 22,9 C 0,5 C 60 % 65 % 13 % 1001,4 hPa 0,0 l/m 3,5 km/h (1 Bft) S 180 0 min 0,1 UV-I 14,2 C 22,9 C 6,0 km/h (2 Bft)
17.07.2011 15:45 22,4 C 22,5 C 21,3 C 22,7 C 22,7 C 0,3 C 60 % 67 % 8 % 1001,4 hPa 0,0 l/m 2,7 km/h (1 Bft) W 270 0 min 0,1 UV-I 14,2 C 22,7 C 3,2 km/h (1 Bft)
17.07.2011 15:50 22,4 C 22,5 C 21,3 C 22,7 C 22,7 C 0,3 C 61 % 67 % 8 % 1001,7 hPa 0,0 l/m 2,9 km/h (1 Bft) S-SW 202 0 min 0,1 UV-I 14,5 C 22,7 C 2,3 km/h (1 Bft)
17.07.2011 15:55 22,3 C 22,5 C 21,1 C 22,5 C 22,5 C 0,2 C 60 % 67 % 5 % 1001,7 hPa 0,0 l/m 2,7 km/h (1 Bft) W-SW 247 0 min 0,1 UV-I 14,2 C 22,5 C 2,9 km/h (1 Bft)
17.07.2011 16:00 22,2 C 22,5 C 21,1 C 22,3 C 22,3 C 0,1 C 59 % 66 % 3 % 1001,7 hPa 0,0 l/m 2,6 km/h (1 Bft) W-SW 247 0 min 0,1 UV-I 13,8 C 22,3 C 2,9 km/h (1 Bft)
17.07.2011 16:08 22,3 C 22,5 C 21,1 C 22,2 C 22,1 C 0,0 C 59 % 66 % 0 % 1001,6 hPa 0,0 l/m 3,5 km/h (1 Bft) N 0 0 min 0,1 UV-I 13,9 C 22,1 C 3,4 km/h (1 Bft)
17.07.2011 16:10 22,3 C 22,5 C 21,1 C 22,2 C 22,1 C 0,0 C 59 % 66 % 0 % 1001,6 hPa 0,0 l/m 3,5 km/h (1 Bft) N 0 0 min 0,1 UV-I 13,9 C 22,1 C 3,4 km/h (1 Bft)
17.07.2011 16:15 22,3 C 22,5 C 20,9 C 22,2 C 22,1 C 0,0 C 59 % 66 % 0 % 1001,6 hPa 0,0 l/m 4,0 km/h (1 Bft) W 270 0 min 0,0 UV-I 13,9 C 22,1 C 6,8 km/h (2 Bft)
17.07.2011 16:20 22,1 C 22,5 C 20,8 C 22,1 C 22,1 C 0,0 C 60 % 66 % 0 % 1001,6 hPa 0,0 l/m 4,8 km/h (1 Bft) SW 225 0 min 0,0 UV-I 14,0 C 22,1 C 6,9 km/h (2 Bft)
17.07.2011 16:25 22,1 C 22,5 C 21,1 C 22,1 C 22,1 C 0,0 C 60 % 64 % 0 % 1001,6 hPa 0,0 l/m 5,8 km/h (2 Bft) W 270 0 min 0,0 UV-I 14,0 C 22,1 C 8,4 km/h (2 Bft)
17.07.2011 16:30 22,1 C 22,5 C 21,0 C 22,1 C 22,0 C 0,0 C 60 % 64 % 0 % 1001,6 hPa 0,0 l/m 6,6 km/h (2 Bft) W-SW 247 0 min 0,0 UV-I 14,0 C 22,0 C 6,6 km/h (2 Bft)
17.07.2011 16:35 22,1 C 22,5 C 21,1 C 22,1 C 22,0 C 0,0 C 60 % 64 % 0 % 1001,6 hPa 0,0 l/m 6,4 km/h (2 Bft) W-SW 247 0 min 0,0 UV-I 14,0 C 22,0 C 6,4 km/h (2 Bft)
17.07.2011 16:40 21,9 C 22,5 C 21,1 C 21,9 C 21,9 C 0,0 C 60 % 65 % 0 % 1001,6 hPa 0,0 l/m 6,8 km/h (2 Bft) W-SW 247 0 min 0,0 UV-I 13,8 C 21,9 C 11,1 km/h (2 Bft)
17.07.2011 16:45 21,9 C 22,5 C 21,0 C 21,9 C 21,8 C 0,0 C 60 % 64 % 0 % 1001,6 hPa 0,0 l/m 8,4 km/h (2 Bft) W-SW 247 0 min 0,0 UV-I 13,8 C 21,8 C 10,9 km/h (2 Bft)
17.07.2011 16:50 21,9 C 22,5 C 20,8 C 21,9 C 21,8 C 0,0 C 60 % 65 % 0 % 1001,8 hPa 0,0 l/m 8,2 km/h (2 Bft) W-SW 247 0 min 0,0 UV-I 13,8 C 21,8 C 8,9 km/h (2 Bft)
17.07.2011 16:55 21,9 C 22,5 C 20,8 C 21,9 C 21,8 C 0,0 C 59 % 63 % 0 % 1001,8 hPa 0,0 l/m 9,0 km/h (2 Bft) W-SW 247 0 min 0,0 UV-I 13,5 C 21,8 C 18,0 km/h (3 Bft)
17.07.2011 17:00 21,8 C 22,5 C 20,8 C 21,8 C 21,8 C 0,0 C 59 % 62 % 0 % 1001,8 hPa 0,0 l/m 10,1 km/h (2 Bft) NW 315 0 min 0,1 UV-I 13,4 C 21,8 C 12,6 km/h (3 Bft)
17.07.2011 17:10 21,7 C 22,5 C 20,7 C 21,6 C 21,5 C 0,0 C 58 % 63 % 0 % 1001,8 hPa 0,0 l/m 8,4 km/h (2 Bft) N 0 0 min 0,0 UV-I 13,1 C 21,5 C 8,2 km/h (2 Bft)
17.07.2011 17:15 21,7 C 22,5 C 20,5 C 21,6 C 21,3 C 0,0 C 59 % 63 % 0 % 1001,8 hPa 0,0 l/m 7,9 km/h (2 Bft) W-SW 247 0 min 0,0 UV-I 13,3 C 21,3 C 8,7 km/h (2 Bft)
17.07.2011 17:20 21,6 C 22,5 C 20,4 C 21,5 C 21,2 C 0,0 C 59 % 64 % 0 % 1001,8 hPa 0,0 l/m 8,0 km/h (2 Bft) SW 225 0 min 0,0 UV-I 13,2 C 21,2 C 5,3 km/h (1 Bft)
17.07.2011 17:25 21,5 C 22,5 C 20,3 C 21,3 C 21,0 C 0,0 C 59 % 65 % 0 % 1001,8 hPa 0,0 l/m 7,9 km/h (2 Bft) NW 315 0 min 0,0 UV-I 13,1 C 21,0 C 5,1 km/h (1 Bft)
17.07.2011 17:30 21,5 C 22,5 C 20,3 C 21,3 C 21,0 C 0,0 C 60 % 65 % 0 % 1001,7 hPa 0,0 l/m 6,8 km/h (2 Bft) N-NO 22 0 min 0,0 UV-I 13,4 C 21,0 C 9,5 km/h (2 Bft)
17.07.2011 17:35 21,5 C 22,5 C 20,3 C 21,3 C 20,9 C 0,0 C 60 % 65 % 0 % 1001,7 hPa 0,0 l/m 6,4 km/h (2 Bft) W 270 0 min 0,0 UV-I 13,4 C 20,9 C 10,1 km/h (2 Bft)
17.07.2011 17:40 21,4 C 22,5 C 20,3 C 21,2 C 20,8 C 0,0 C 60 % 66 % 0 % 1001,7 hPa 0,0 l/m 7,9 km/h (2 Bft) W-SW 247 0 min 0,0 UV-I 13,3 C 20,8 C 6,1 km/h (2 Bft)
17.07.2011 17:45 21,3 C 22,5 C 20,0 C 21,1 C 20,6 C 0,0 C 61 % 66 % 0 % 1001,7 hPa 0,0 l/m 7,9 km/h (2 Bft) W-SW 247 0 min 0,0 UV-I 13,5 C 20,6 C 12,1 km/h (2 Bft)
17.07.2011 17:50 21,3 C 22,6 C 20,1 C 21,0 C 20,5 C 0,0 C 61 % 66 % 0 % 1001,8 hPa 0,0 l/m 7,7 km/h (2 Bft) SW 225 0 min 0,0 UV-I 13,5 C 20,5 C 16,1 km/h (3 Bft)
17.07.2011 17:55 21,2 C 22,6 C 20,0 C 20,9 C 20,4 C 0,0 C 61 % 67 % 0 % 1001,8 hPa 0,0 l/m 7,4 km/h (2 Bft) SW 225 0 min 0,0 UV-I 13,4 C 20,4 C 6,1 km/h (2 Bft)
17.07.2011 18:00 21,1 C 22,6 C 19,9 C 20,9 C 20,4 C 0,0 C 62 % 68 % 0 % 1001,8 hPa 0,0 l/m 6,1 km/h (2 Bft) W 270 0 min 0,0 UV-I 13,5 C 20,4 C 8,0 km/h (2 Bft)
17.07.2011 18:10 21,0 C 22,6 C 19,7 C 20,7 C 20,1 C 0,0 C 62 % 69 % 0 % 1001,9 hPa 0,0 l/m 7,2 km/h (2 Bft) N 0 0 min 0,0 UV-I 13,4 C 20,1 C 20,8 km/h (4 Bft)
17.07.2011 18:15 20,8 C 22,6 C 19,7 C 20,5 C 19,9 C 0,0 C 63 % 69 % 0 % 1001,9 hPa 0,0 l/m 9,8 km/h (2 Bft) W-SW 247 0 min 0,0 UV-I 13,5 C 19,9 C 16,1 km/h (3 Bft)
17.07.2011 18:20 20,8 C 22,5 C 19,6 C 20,5 C 19,8 C 0,0 C 63 % 69 % 0 % 1001,9 hPa 0,0 l/m 9,7 km/h (2 Bft) SW 225 0 min 0,0 UV-I 13,5 C 19,8 C 12,7 km/h (3 Bft)
17.07.2011 18:25 20,8 C 22,5 C 19,5 C 20,4 C 19,7 C 0,0 C 64 % 69 % 0 % 1001,9 hPa 0,0 l/m 9,5 km/h (2 Bft) W 270 0 min 0,0 UV-I 13,7 C 19,7 C 9,3 km/h (2 Bft)
17.07.2011 18:30 20,7 C 22,5 C 19,3 C 20,3 C 19,5 C 0,0 C 64 % 70 % 0 % 1001,9 hPa 0,0 l/m 9,3 km/h (2 Bft) W-SW 247 0 min 0,0 UV-I 13,6 C 19,5 C 9,7 km/h (2 Bft)
17.07.2011 18:35 20,7 C 22,5 C 19,3 C 20,2 C 19,3 C 0,0 C 65 % 71 % 0 % 1001,9 hPa 0,0 l/m 9,2 km/h (2 Bft) S-SW 202 0 min 0,0 UV-I 13,9 C 19,3 C 10,3 km/h (2 Bft)
17.07.2011 18:40 20,5 C 22,5 C 19,1 C 20,1 C 19,2 C 0,0 C 65 % 71 % 0 % 1001,9 hPa 0,0 l/m 8,0 km/h (2 Bft) SW 225 0 min 0,0 UV-I 13,7 C 19,2 C 4,8 km/h (1 Bft)
17.07.2011 18:45 20,4 C 22,5 C 18,9 C 19,9 C 19,0 C 0,0 C 65 % 72 % 0 % 1001,9 hPa 0,0 l/m 7,9 km/h (2 Bft) SW 225 0 min 0,0 UV-I 13,6 C 19,0 C 13,7 km/h (3 Bft)
17.07.2011 18:50 20,4 C 22,5 C 18,8 C 19,9 C 18,8 C 0,0 C 65 % 72 % 0 % 1002,1 hPa 0,0 l/m 8,9 km/h (2 Bft) NW 315 0 min 0,0 UV-I 13,6 C 18,8 C 17,2 km/h (3 Bft)
17.07.2011 18:55 20,3 C 22,5 C 18,7 C 19,7 C 18,6 C 0,0 C 66 % 73 % 0 % 1002,1 hPa 0,0 l/m 10,0 km/h (2 Bft) SO 135 0 min 0,0 UV-I 13,7 C 18,6 C 10,0 km/h (2 Bft)
17.07.2011 19:00 20,1 C 22,5 C 18,7 C 19,6 C 18,5 C 0,0 C 66 % 74 % 0 % 1002,1 hPa 0,0 l/m 8,9 km/h (2 Bft) W-SW 247 0 min 0,0 UV-I 13,5 C 18,5 C 8,5 km/h (2 Bft)
17.07.2011 19:10 19,9 C 22,5 C 18,4 C 19,3 C 18,1 C 0,0 C 68 % 75 % 0 % 1002,1 hPa 0,0 l/m 8,5 km/h (2 Bft) N 0 0 min 0,0 UV-I 13,8 C 18,1 C 13,2 km/h (3 Bft)
17.07.2011 19:15 19,9 C 22,9 C 18,3 C 19,1 C 17,6 C 0,0 C 70 % 78 % 0 % 1002,1 hPa 0,7 l/m 8,0 km/h (2 Bft) W-NW 292 0 min 0,0 UV-I 14,3 C 17,6 C 7,6 km/h (2 Bft)
17.07.2011 19:20 19,7 C 23,0 C 17,5 C 18,7 C 16,6 C 0,0 C 72 % 81 % 0 % 1002,1 hPa 0,0 l/m 8,4 km/h (2 Bft) W-SW 247 0 min 0,0 UV-I 14,5 C 16,6 C 9,5 km/h (2 Bft)
17.07.2011 19:25 19,2 C 23,0 C 16,6 C 18,2 C 15,8 C 0,0 C 73 % 87 % 0 % 1002,1 hPa 0,0 l/m 8,2 km/h (2 Bft) W 270 0 min 0,0 UV-I 14,2 C 15,8 C 3,7 km/h (1 Bft)
17.07.2011 19:30 19,0 C 23,0 C 16,5 C 17,9 C 15,6 C 0,0 C 74 % 89 % 0 % 1002,6 hPa 0,0 l/m 6,8 km/h (2 Bft) SW 225 0 min 0,0 UV-I 14,3 C 15,6 C 6,9 km/h (2 Bft)
17.07.2011 19:35 18,7 C 23,0 C 16,4 C 17,6 C 15,5 C 0,0 C 76 % 89 % 0 % 1002,6 hPa 0,7 l/m 5,3 km/h (1 Bft) W-SW 247 0 min 0,0 UV-I 14,4 C 15,5 C 5,3 km/h (1 Bft)
17.07.2011 19:40 18,5 C 23,0 C 16,3 C 17,5 C 15,4 C 0,0 C 76 % 90 % 0 % 1002,6 hPa 0,0 l/m 4,3 km/h (1 Bft) S-SO 157 0 min 0,0 UV-I 14,2 C 15,4 C 0,0 km/h (0 Bft)
17.07.2011 19:45 18,4 C 23,0 C 16,1 C 17,4 C 15,3 C 0,0 C 77 % 91 % 0 % 1002,6 hPa 0,7 l/m 1,9 km/h (1 Bft) SO 135 0 min 0,0 UV-I 14,3 C 15,3 C 3,4 km/h (1 Bft)
17.07.2011 19:50 18,3 C 23,0 C 16,0 C 17,3 C 15,3 C 0,0 C 78 % 91 % 0 % 1002,6 hPa 0,0 l/m 1,6 km/h (1 Bft) W-SW 247 0 min 0,0 UV-I 14,4 C 15,3 C 4,2 km/h (1 Bft)
17.07.2011 19:55 18,2 C 23,0 C 16,0 C 17,2 C 15,2 C 0,0 C 79 % 92 % 0 % 1002,6 hPa 0,0 l/m 2,7 km/h (1 Bft) S-SO 157 0 min 0,0 UV-I 14,5 C 15,2 C 2,9 km/h (1 Bft)
17.07.2011 20:00 18,1 C 22,9 C 15,9 C 17,1 C 15,2 C 0,0 C 79 % 92 % 0 % 1002,6 hPa 0,7 l/m 2,6 km/h (1 Bft) SO 135 0 min 0,0 UV-I 14,4 C 15,2 C 0,0 km/h (0 Bft)
17.07.2011 20:10 18,0 C 22,9 C 15,9 C 17,1 C 15,2 C 0,0 C 81 % 92 % 0 % 1003,0 hPa 0,0 l/m 0,5 km/h (0 Bft) N 0 0 min 0,0 UV-I 14,7 C 15,2 C 0,0 km/h (0 Bft)
17.07.2011 20:15 17,9 C 22,9 C 15,7 C 17,0 C 15,2 C 0,0 C 81 % 93 % 0 % 1003,0 hPa 0,7 l/m 0,6 km/h (0 Bft) S 180 0 min 0,0 UV-I 14,6 C 15,2 C 1,6 km/h (1 Bft)
17.07.2011 20:20 17,9 C 22,9 C 15,7 C 17,0 C 15,2 C 0,0 C 81 % 93 % 0 % 1003,0 hPa 0,0 l/m 0,6 km/h (0 Bft) S 180 0 min 0,0 UV-I 14,6 C 15,2 C 0,0 km/h (0 Bft)
17.07.2011 20:25 17,7 C 22,9 C 15,7 C 16,9 C 15,2 C 0,0 C 81 % 93 % 0 % 1003,0 hPa 0,7 l/m 0,5 km/h (0 Bft) S 180 0 min 0,0 UV-I 14,4 C 15,2 C 2,7 km/h (1 Bft)
17.07.2011 20:30 17,6 C 22,9 C 15,6 C 16,8 C 15,1 C 0,0 C 82 % 93 % 0 % 1002,8 hPa 0,7 l/m 0,6 km/h (0 Bft) NW 315 0 min 0,0 UV-I 14,5 C 15,1 C 2,6 km/h (1 Bft)
17.07.2011 20:35 17,6 C 23,0 C 15,6 C 16,8 C 15,1 C 0,0 C 82 % 93 % 0 % 1002,8 hPa 0,7 l/m 1,4 km/h (1 Bft) S-SW 202 0 min 0,0 UV-I 14,5 C 15,1 C 2,1 km/h (1 Bft)
17.07.2011 20:40 17,5 C 23,0 C 15,5 C 16,7 C 15,0 C 0,0 C 82 % 93 % 0 % 1002,8 hPa 0,0 l/m 1,3 km/h (1 Bft) S 180 0 min 0,0 UV-I 14,4 C 15,0 C 0,0 km/h (0 Bft)
17.07.2011 20:45 17,3 C 23,0 C 15,5 C 16,5 C 15,0 C 0,0 C 83 % 93 % 0 % 1002,8 hPa 0,7 l/m 1,9 km/h (1 Bft) O 90 0 min 0,0 UV-I 14,4 C 15,0 C 3,1 km/h (1 Bft)
17.07.2011 20:50 17,3 C 22,9 C 15,5 C 16,5 C 15,0 C 0,0 C 83 % 93 % 0 % 1003,7 hPa 0,0 l/m 2,7 km/h (1 Bft) SW 225 0 min 0,0 UV-I 14,4 C 15,0 C 6,3 km/h (2 Bft)
17.07.2011 20:55 17,2 C 22,9 C 15,2 C 16,4 C 14,9 C 0,0 C 82 % 93 % 0 % 1003,7 hPa 0,7 l/m 2,9 km/h (1 Bft) O-NO 67 0 min 0,0 UV-I 14,1 C 14,9 C 2,4 km/h (1 Bft)
17.07.2011 21:00 17,0 C 22,9 C 15,1 C 16,3 C 14,8 C 0,0 C 82 % 93 % 0 % 1003,7 hPa 0,0 l/m 2,6 km/h (1 Bft) W-SW 247 0 min 0,0 UV-I 13,9 C 14,8 C 1,8 km/h (1 Bft)
17.07.2011 21:10 16,8 C 22,9 C 15,1 C 16,1 C 14,6 C 0,0 C 82 % 94 % 0 % 1003,6 hPa 0,7 l/m 2,4 km/h (1 Bft) N 0 0 min 0,0 UV-I 13,7 C 14,6 C 4,2 km/h (1 Bft)
17.07.2011 21:15 16,9 C 22,9 C 15,0 C 16,1 C 14,5 C 0,0 C 83 % 94 % 0 % 1003,6 hPa 0,7 l/m 1,8 km/h (1 Bft) S 180 0 min 0,0 UV-I 14,0 C 14,5 C 2,7 km/h (1 Bft)
17.07.2011 21:20 16,7 C 22,9 C 15,0 C 16,0 C 14,5 C 0,0 C 83 % 94 % 0 % 1003,6 hPa 0,0 l/m 1,6 km/h (1 Bft) S 180 0 min 0,0 UV-I 13,8 C 14,5 C 4,3 km/h (1 Bft)
17.07.2011 21:25 16,7 C 22,8 C 14,9 C 16,0 C 14,5 C 0,0 C 84 % 94 % 0 % 1003,6 hPa 0,7 l/m 1,3 km/h (1 Bft) S 180 0 min 0,0 UV-I 14,0 C 14,5 C 0,0 km/h (0 Bft)
17.07.2011 21:30 16,7 C 22,8 C 14,9 C 15,9 C 14,4 C 0,0 C 84 % 94 % 0 % 1003,4 hPa 0,0 l/m 1,1 km/h (1 Bft) S-SO 157 0 min 0,0 UV-I 14,0 C 14,4 C 3,2 km/h (1 Bft)
17.07.2011 21:35 16,7 C 22,8 C 14,8 C 15,9 C 14,4 C 0,0 C 84 % 94 % 0 % 1003,4 hPa 0,0 l/m 0,3 km/h (0 Bft) O-SO 112 0 min 0,0 UV-I 14,0 C 14,4 C 0,0 km/h (0 Bft)
17.07.2011 21:40 16,5 C 22,8 C 14,8 C 15,8 C 14,4 C 0,0 C 84 % 94 % 0 % 1003,4 hPa 0,7 l/m 0,2 km/h (0 Bft) S 180 0 min 0,0 UV-I 13,8 C 14,4 C 0,0 km/h (0 Bft)
17.07.2011 21:45 16,5 C 22,8 C 14,9 C 15,8 C 14,3 C 0,0 C 85 % 94 % 0 % 1003,4 hPa 0,0 l/m 0,0 km/h (0 Bft) S-SO 157 0 min 0,0 UV-I 14,0 C 14,3 C 0,0 km/h (0 Bft)
17.07.2011 21:50 16,5 C 22,8 C 14,8 C 15,8 C 14,3 C 0,0 C 85 % 94 % 0 % 1003,1 hPa 0,0 l/m 0,2 km/h (0 Bft) SO 135 0 min 0,0 UV-I 14,0 C 14,3 C 0,0 km/h (0 Bft)
17.07.2011 21:55 16,5 C 22,8 C 14,8 C 15,8 C 14,3 C 0,0 C 84 % 94 % 0 % 1003,1 hPa 0,7 l/m 0,0 km/h (0 Bft) SO 135 0 min 0,0 UV-I 13,8 C 14,3 C 0,0 km/h (0 Bft)
17.07.2011 22:00 16,3 C 22,8 C 14,7 C 15,6 C 14,3 C 0,0 C 84 % 94 % 0 % 1003,1 hPa 0,0 l/m 0,0 km/h (0 Bft) SO 135 0 min 0,0 UV-I 13,6 C 14,3 C 0,0 km/h (0 Bft)
17.07.2011 22:09 16,3 C 22,7 C 14,7 C 15,6 C 14,3 C 0,0 C 85 % 94 % 0 % 1002,8 hPa 0,0 l/m 0,0 km/h (0 Bft) N 0 0 min 0,0 UV-I 13,8 C 14,3 C 0,0 km/h (0 Bft)
17.07.2011 22:15 16,2 C 22,7 C 14,9 C 15,6 C 14,3 C 0,0 C 86 % 95 % 0 % 1002,8 hPa 0,0 l/m 0,2 km/h (0 Bft) SW 225 0 min 0,0 UV-I 13,9 C 14,3 C 0,0 km/h (0 Bft)
17.07.2011 22:20 16,2 C 22,7 C 14,8 C 15,6 C 14,3 C 0,0 C 86 % 95 % 0 % 1002,8 hPa 0,7 l/m 0,2 km/h (0 Bft) S-SW 202 0 min 0,0 UV-I 13,9 C 14,3 C 0,0 km/h (0 Bft)
17.07.2011 22:25 16,3 C 22,7 C 14,8 C 15,7 C 14,4 C 0,0 C 86 % 95 % 0 % 1002,8 hPa 0,0 l/m 0,6 km/h (0 Bft) SW 225 0 min 0,0 UV-I 14,0 C 14,4 C 2,4 km/h (1 Bft)
17.07.2011 22:30 16,3 C 22,7 C 14,9 C 15,7 C 14,4 C 0,0 C 86 % 95 % 0 % 1003,2 hPa 0,7 l/m 1,4 km/h (1 Bft) W-SW 247 0 min 0,0 UV-I 14,0 C 14,4 C 4,3 km/h (1 Bft)
17.07.2011 22:35 16,3 C 22,7 C 14,7 C 15,6 C 14,3 C 0,0 C 86 % 95 % 0 % 1003,2 hPa 0,0 l/m 2,1 km/h (1 Bft) W 270 0 min 0,0 UV-I 14,0 C 14,3 C 0,0 km/h (0 Bft)
17.07.2011 22:40 16,3 C 22,6 C 14,7 C 15,6 C 14,3 C 0,0 C 86 % 95 % 0 % 1003,2 hPa 0,0 l/m 1,9 km/h (1 Bft) NW 315 0 min 0,0 UV-I 14,0 C 14,3 C 2,1 km/h (1 Bft)
17.07.2011 22:45 16,1 C 22,6 C 14,5 C 15,5 C 14,2 C 0,0 C 85 % 94 % 0 % 1003,2 hPa 0,7 l/m 2,4 km/h (1 Bft) W 270 0 min 0,0 UV-I 13,6 C 14,2 C 8,2 km/h (2 Bft)
17.07.2011 22:50 16,0 C 22,5 C 14,4 C 15,4 C 14,1 C 0,0 C 85 % 94 % 0 % 1003,4 hPa 0,0 l/m 3,1 km/h (1 Bft) W-SW 247 0 min 0,0 UV-I 13,5 C 14,1 C 4,5 km/h (1 Bft)
17.07.2011 22:55 15,9 C 22,5 C 14,2 C 15,2 C 13,8 C 0,0 C 84 % 94 % 0 % 1003,4 hPa 0,7 l/m 4,7 km/h (1 Bft) S-SO 157 0 min 0,0 UV-I 13,2 C 13,8 C 3,7 km/h (1 Bft)
17.07.2011 23:00 15,9 C 22,5 C 14,0 C 15,1 C 13,5 C 0,0 C 84 % 94 % 0 % 1003,4 hPa 0,0 l/m 4,8 km/h (1 Bft) W-NW 292 0 min 0,0 UV-I 13,2 C 13,5 C 4,0 km/h (1 Bft)
17.07.2011 23:10 15,6 C 22,4 C 13,7 C 14,8 C 13,2 C 0,0 C 83 % 94 % 0 % 1003,4 hPa 0,0 l/m 3,5 km/h (1 Bft) N 0 0 min 0,0 UV-I 12,7 C 13,2 C 4,7 km/h (1 Bft)
17.07.2011 23:15 15,5 C 22,4 C 13,7 C 14,7 C 13,0 C 0,0 C 83 % 94 % 0 % 1003,4 hPa 0,7 l/m 2,6 km/h (1 Bft) NW 315 0 min 0,0 UV-I 12,6 C 13,0 C 5,3 km/h (1 Bft)
17.07.2011 23:20 15,5 C 22,4 C 13,7 C 14,7 C 13,0 C 0,0 C 83 % 94 % 0 % 1003,4 hPa 0,0 l/m 2,4 km/h (1 Bft) S 180 0 min 0,0 UV-I 12,6 C 13,0 C 3,1 km/h (1 Bft)
17.07.2011 23:25 15,2 C 22,4 C 13,4 C 14,4 C 12,8 C 0,0 C 82 % 94 % 0 % 1003,4 hPa 0,0 l/m 2,1 km/h (1 Bft) W 270 0 min 0,0 UV-I 12,1 C 12,8 C 1,8 km/h (1 Bft)
17.07.2011 23:30 15,2 C 22,3 C 13,3 C 14,4 C 12,7 C 0,0 C 83 % 94 % 0 % 1003,4 hPa 0,0 l/m 2,4 km/h (1 Bft) SO 135 0 min 0,0 UV-I 12,3 C 12,7 C 3,7 km/h (1 Bft)
17.07.2011 23:35 15,1 C 22,3 C 13,3 C 14,3 C 12,6 C 0,0 C 84 % 95 % 0 % 1003,4 hPa 0,0 l/m 1,9 km/h (1 Bft) SO 135 0 min 0,0 UV-I 12,4 C 12,6 C 0,0 km/h (0 Bft)
17.07.2011 23:40 15,1 C 22,3 C 13,3 C 14,3 C 12,6 C 0,0 C 84 % 95 % 0 % 1003,4 hPa 0,0 l/m 2,1 km/h (1 Bft) W-SW 247 0 min 0,0 UV-I 12,4 C 12,6 C 3,9 km/h (1 Bft)
17.07.2011 23:45 15,0 C 22,4 C 13,2 C 14,2 C 12,6 C 0,0 C 84 % 94 % 0 % 1003,4 hPa 0,0 l/m 1,6 km/h (1 Bft) SW 225 0 min 0,0 UV-I 12,3 C 12,6 C 4,0 km/h (1 Bft)
17.07.2011 23:50 15,1 C 22,4 C 13,2 C 14,3 C 12,6 C 0,0 C 84 % 94 % 0 % 1003,9 hPa 0,7 l/m 1,8 km/h (1 Bft) W-NW 292 0 min 0,0 UV-I 12,4 C 12,6 C 2,1 km/h (1 Bft)
17.07.2011 23:55 14,9 C 22,3 C 13,2 C 14,1 C 12,5 C 0,0 C 84 % 95 % 0 % 1003,9 hPa 0,0 l/m 1,9 km/h (1 Bft) SO 135 0 min 0,0 UV-I 12,2 C 12,5 C 0,0 km/h (0 Bft)
_ Min-Zeit 23:55 07:10 23:45 23:55 23:55 00:00 11:20 11:20 00:00 10:50 - 00:00 - - - 00:00 03:10 23:55 00:00
Minimum _ 14,9 C 21,7 C 13,2 C 14,1 C 12,5 C 0,0 C 55 % 58 % 0 % 1000,2 hPa - 0,0 km/h (0 Bft) - - - 0,0 UV-I 10,6 C 12,5 C 0,0 km/h (0 Bft)
_ Max-Zeit 11:30 19:20 11:30 10:15 10:15 10:15 22:15 22:15 07:25 00:00 19:15 12:25 - - 09:12 07:20 12:40 10:15 13:25
Maximum _ 24,5 C 23,0 C 23,8 C 33,5 C 33,5 C 11,0 C 86 % 95 % 100 % 1005,5 hPa 0,7 l/m 11,7 km/h
W-SW (2 Bft)
- - 12 min 7,2 UV-I 15,5 C 33,5 C 28,0 km/h
S (4 Bft)
Durchschnitt _ 19,4 C 22,3 C 18,1 C 20,3 C 19,4 C 1,3 C 68 % 75 % 24 % 1002,1 hPa #14,4 l/m 2,8 km/h (1 Bft) W-SW - #4:00 h 0,5 UV-I 13,3 C 19,4 C 4,1 km/h (1 Bft)
2013 www.wetterstation-wechselburg.de